Flag for Iran Weather past 2 weeks in Bandar-Abbas, Iran

Now
91 °F

Haze.


Feels Like: 118 °F
Forecast: 87 / 103 °F
Wind: 7 mph from East

Location: Bandarabbass

Current Time: Aug 4, 2015 at 12:40:05 AM

Latest Report: Aug 4, 2015 at 12:00 AM


Visibility: 2 mi

Pressure: 29.59 "Hg

Humidity: 80%

Dew point: 84 °F

Location of Bandar-AbbasLocation

Historic Weather in Bandar-Abbas — Graph

°F

Bandar-Abbas temperature yesterday

Maximum temperature yesterday: 100 °F (at 10:00 AM)
Minimum temperature yesterday: 88 °F (at 6:30 AM)
Average temperature yesterday: 95 °F

Past Weeks' High & Low Weather Summary

 TemperatureHumidityPressure
High111 °F (Jul 29, 6:00 PM)89% (Jul 22, 3:30 AM)29.59 "Hg (Jul 22, 3:30 AM)
Low86 °F (Jul 22, 6:30 AM)17% (Jul 29, 6:00 PM)29.30 "Hg (Jul 29, 5:30 PM)
Average96 °F66%29.47 "Hg
* Reported Jul 19 11:30 PM — Aug 3 11:30 PM, Bandar-Abbas, Weather by CustomWeather, © 2015

Note: Actual official high and low records may vary slightly from our data, if they occured in-between our weather recording intervals... More about our weather records

Advertising

Bandar-Abbas weather history for previous 24 hours

 ConditionsComfort  
Time TempWeatherWind HumidityBarometerVisibility
11:30 PM
Mon, Aug 3
91 °FHaze.7 mph80%29.59 "Hg2 mi
11:00 PM91 °FHaze.5 mph80%29.59 "Hg3 mi
10:30 PM93 °FHaze.7 mph75%29.59 "Hg3 mi
10:00 PM91 °FHaze.5 mph80%29.59 "Hg3 mi
9:30 PM93 °FHaze.9 mph71%29.56 "Hg3 mi
9:00 PM93 °FHaze.9 mph71%29.56 "Hg3 mi
8:30 PM95 °FHaze.9 mph63%29.53 "Hg3 mi
8:00 PM95 °FHaze.12 mph67%29.53 "Hg3 mi
7:30 PM95 °FHaze.12 mph67%29.53 "Hg3 mi
7:00 PM95 °FHaze.12 mph67%29.53 "Hg3 mi
6:20 PM99 °FHaze.14 mph57%29.50 "Hg3 mi
6:00 PM99 °FHaze.12 mph50%29.53 "Hg3 mi
5:30 PM99 °FHaze.12 mph50%29.53 "Hg3 mi
5:00 PM97 °FHaze.14 mph67%29.53 "Hg3 mi
4:30 PM99 °FSandstorm.18 mph67%29.53 "Hg3 mi
4:00 PM99 °FSandstorm.16 mph64%29.53 "Hg3 mi
3:20 PM99 °FSandstorm.21 mph64%29.53 "Hg3 mi
3:00 PM99 °FSandstorm.16 mph64%29.53 "Hg3 mi
2:30 PM99 °FSandstorm.18 mph60%29.53 "Hg3 mi
2:00 PM99 °FSandstorm.21 mph57%29.56 "Hg2 mi
1:30 PM99 °FSandstorm.18 mph57%29.56 "Hg3 mi
1:00 PM100 °FHaze.14 mph50%29.56 "Hg3 mi
12:30 PM100 °FHaze.9 mph50%29.59 "Hg3 mi
12:00 PM100 °FHaze.9 mph47%29.59 "Hg3 mi
11:30 AM99 °FHaze.9 mph53%29.59 "Hg3 mi
11:00 AM99 °FHaze.12 mph53%29.59 "Hg3 mi
10:30 AM100 °FHaze.5 mph50%29.59 "Hg3 mi
10:00 AM100 °FHaze.7 mph45%29.59 "Hg2 mi
9:30 AM99 °FHaze.5 mph53%29.59 "Hg2 mi
9:00 AM97 °FHaze.5 mph56%29.59 "Hg2 mi
8:00 AM93 °FHaze.7 mph67%29.59 "Hg2 mi
7:30 AM90 °FFog.5 mph79%29.59 "Hg2 mi
7:00 AM90 °FFog.5 mph79%29.59 "Hg2 mi
6:30 AM88 °FFog.7 mph84%29.59 "Hg2 mi
5:30 AM90 °FHaze.5 mph79%29.56 "Hg2 mi
4:30 AM91 °FHaze.7 mph71%29.56 "Hg2 mi
3:30 AM91 °FPassing clouds.9 mph71%29.56 "Hg2 mi
2:30 AM91 °FPassing clouds.9 mph71%29.56 "Hg2 mi
2:00 AM91 °FPassing clouds.7 mph71%29.56 "Hg2 mi
1:30 AM91 °FHaze.5 mph67%29.56 "Hg2 mi
1:00 AM91 °FHaze.7 mph67%29.59 "Hg2 mi
12:30 AM93 °FHaze.7 mph67%29.59 "Hg2 mi
12:00 AM93 °FHaze.5 mph67%29.59 "Hg2 mi
Weather by CustomWeather, © 2015

See weather overviewHow to use our weather pages